Погода в Ксеньевке

Россия / Забайкальский край     53°33′30″N   118°43′27″E
темп.,
°C
ветер,
м/с
пор.,
м/с
влажн.,
%
обл.,
%
осадки,
мм/ч
давл.,
гПа
погр.,
м
27 сентября, пн
пн2700:00+9ююз269978 1.8 1002318
03:00+3ююз399725 1.9 1003351
06:00+2юз4108692 0.0 1002528
09:00+3юз489068 0.0 1003511
12:00+4юз5879100 0.0 1002954
15:00+7зюз61164100 0.1 10021518
18:00+6зюз41173100 0.3 10031161
21:00+2ююз268576 0.3 1005133
28 сентября, вт
вт2800:000ююз238428 0.0 100743
03:00−1ююз11870 0.0 100710
06:00−2зюз1191100 0.0 100810
09:00+2зюз11715 0.0 1007204
12:00+7сз23475 0.0 10041258
15:00+8сз3441100 0.0 10031969
18:00+4ссз256480 0.1 1005180
21:00+1сз1173100 0.1 100710
29 сентября, ср
ср2900:00+1зюз1175100 0.0 100720
03:00−1зюз118467 0.0 100710
06:00−3зсз1192100 0.0 100710
09:00+1зсз1273100 0.0 1007275
12:00+3ссз2261100 0.0 10071219
15:00+5зсз125591 0.1 10061166
18:00+3зсз116492 0.1 100711
21:000зсз1177100 0.1 100810
30 сентября, чт
чт3000:00−1с1189100 0.0 100918
03:00−1ссз1397100 0.1 1009113
06:00−2сз1197100 0.0 100916
09:00+1ссз1279100 0.0 1008273
12:00+3ссз2357100 0.1 10071284
15:00+5сз2448100 0.3 10061605
18:00+2сз2369100 0.2 100791
21:00−2ссз118527 0.2 100910
1 октября, пт
пт100:00−3ссз018692 0.0 101010
03:00−3ссв119172 0.0 101010
06:00−3с1188100 0.0 101110
09:000ссз11705 0.0 1010225
12:00+5сз114745 0.0 10091270
15:00+6з1241100 0.0 10071708
18:00+3ююз115890 0.0 100815
21:00−1сз117388 0.0 101010